Back to catalog

SL-8 R/B

AlivePO
NORAD 23279·ROCKET BODY·🇷🇺 Russia

Launched Sep 27, 1994 from Plesetsk Cosmodrome

Loading…

Next Passes (next 24 hours)

TLE

FreshSource: Space-Track

Epoch: Sep 14, 2026, 09:19 UTC

1 23279U 94061B   26257.38835563  .00006029  00000-0  29541-3 0  9997
2 23279  82.9564 227.6754 0589641  98.4507 268.3932 14.30922799598368

Track SL-8 R/B in real time with AllMySat

Download on the App Store